Location: Meletole
(44.8500°N, 10.6000°E)
Time: 18:26:56
(UTC+00:00)

Daily predictions for brighter satellites

Satellite Brightness Start Highest point End
(mag) Time Altitude Azimuth Time Altitude Azimuth Time Altitude Azimuth
CZ-4C R/B 4.4 18:51:22 10° NNW 18:56:49 25° NNE 19:03:00 10° E
OE (NEXTSAT) 4.4 18:58:00 10° WSW 19:01:28 87° NNW 19:04:58 10° ENE
Sich 1 4.4 18:58:27 10° NNE 19:01:55 23° ENE 19:05:23 10° SE
MOS 1 4.4 19:02:29 10° SSE 19:08:04 65° ENE 19:13:42 10° N
Lacrosse 5 rocket 4.2 19:09:49 10° WSW 19:11:05 11° WSW 19:12:21 10° SW
MOS 1-B Rocket 4.4 19:05:17 10° NNE 19:12:58 72° ESE 19:19:26 10° S
SJ-6B 3.2 19:15:22 10° S 19:19:12 66° W 19:23:08 10° NNW
SL-08 ROCKET BODY 4.3 19:19:41 10° N 19:25:37 79° E 19:31:28 10° SSE
Terra 4.1 19:26:19 10° ENE 19:26:39 10° NE 19:26:59 10° NE
USA 290 3.5 19:25:13 10° N 19:28:02 26° ENE 19:30:10 14° ESE
Ariane Rocket 3.0 19:23:49 10° SSE 19:28:52 89° WSW 19:33:58 10° NNW
Cosmos 2263 Rocket 4.4 19:27:17 10° WSW 19:32:08 30° NW 19:37:02 10° N
FALCON 9 DEB 3.3 19:30:30 10° WNW 19:33:29 50° SW 19:35:41 16° SE
IRIS 4.4 19:31:27 10° WSW 19:33:41 37° S 19:35:32 17° ESE
Cosmos 1606 2.8 19:30:51 10° SSW 19:34:36 79° W 19:38:24 10° N
CZ-2C R/B 4.4 19:31:25 10° NNE 19:35:25 32° E 19:39:20 11° SSE
Cosmos 1844 Rocket 2.6 19:31:08 10° SSW 19:36:40 75° ESE 19:42:15 10° NNE
SPOT 1/Viking Rocket 4.3 19:36:09 14° SE 19:40:12 38° ENE 19:44:59 10° N
MetOp-B 4.5 19:36:53 13° SE 19:41:27 50° ENE 19:46:36 10° N
SL-4 R/B 2.5 19:37:45 10° WNW 19:42:05 60° SW 19:45:35 17° SE
Cosmos 1805 Rocket 3.5 19:39:01 10° N 19:43:23 80° E 19:47:34 11° SSE
Cosmos 1386 Rocket 4.4 19:39:09 10° N 19:45:11 75° E 19:51:15 10° SSE
Cosmos 1354 Rocket 4.4 19:40:30 10° S 19:45:21 41° ESE 19:50:15 10° NE
X-37B 0.6 19:42:13 10° W 19:45:25 85° N 19:47:53 16° E
ARIANE 5 R/B 3.9 19:43:07 15° ESE 19:45:39 26° ENE 19:49:15 10° N
Cosmos 1633 Rocket 3.8 19:47:44 10° N 19:51:49 36° ENE 19:54:17 20° SE
Cosmos 1745 Rocket 4.0 19:46:11 10° N 19:52:25 86° E 19:58:34 10° S
SPOT 3 Rocket 3.5 19:49:01 13° SSE 19:53:39 80° ENE 19:58:50 10° NNW
Cosmos 1437 4.4 19:54:17 15° E 19:54:17 15° E 19:55:40 10° NE
Cosmos 1709 Rocket 4.2 19:49:14 10° N 19:55:14 54° ENE 19:59:47 18° SSE
Resurs 1-3 4.4 19:51:40 10° S 19:55:56 51° W 20:00:14 10° NNW
Landsat 7 3.8 19:52:36 16° SSE 19:56:27 73° ENE 20:01:12 10° N
Cosmos 1844 3.7 19:51:09 10° SSW 19:56:53 87° ESE 20:02:36 10° NNE
Cosmos 1812 4.4 19:56:30 17° E 19:56:57 17° E 19:59:27 10° NE
Cosmos 968 Rocket 4.0 19:52:29 10° SSW 19:57:41 63° WNW 20:02:54 10° NNE
BREEZE-M DEB (TANK) 4.0 19:55:05 10° WNW 19:59:22 80° SSW 20:06:54 14° ESE
ATLAS 5 CENTAUR R/B 2.5 19:55:37 10° NNW 20:01:09 65° NE 20:05:41 20° SE
NOSS 3-3 (A) 4.2 19:56:28 10° S 20:01:44 41° ESE 20:07:38 10° NE
NOSS 3-3 (C) 4.2 19:56:35 10° S 20:01:51 41° ESE 20:07:44 10° NE
Cosmos 1328 Rocket 4.2 19:59:49 21° SE 20:02:08 37° E 20:06:13 10° NNE
Cosmos 1486 Rocket 4.4 19:59:54 10° SSW 20:05:11 68° WNW 20:10:32 10° NNE
IGS 5A 3.6 20:04:26 16° S 20:07:39 75° WSW 20:11:50 10° NNW
Meteor 1-26 Rocket 4.3 20:02:16 10° S 20:07:49 61° E 20:13:18 10° NNE
CARTOSAT-1 4.2 20:07:02 24° ESE 20:09:02 39° ENE 20:13:04 10° N
Cosmos 2315 Rocket 4.1 20:04:39 12° S 20:10:27 61° E 20:16:45 10° NNE
Cosmos 1833 Rocket 3.8 20:05:43 10° N 20:10:46 32° NE 20:14:00 19° ESE
CRYOSAT 2 4.4 20:07:53 21° SSE 20:11:08 63° E 20:15:59 10° N
S3M 4.3 20:04:52 10° SSW 20:11:14 74° W 20:17:36 10° N
BREEZE-M R/B 2.0 20:10:41 10° WSW 20:13:14 64° NNW 20:15:12 15° ENE
Cosmos 1666 4.3 20:14:04 10° NNE 20:16:50 19° ENE 20:17:21 19° E
Cosmos 1666 Rocket 3.5 20:13:04 10° N 20:17:30 83° E 20:19:57 26° SSE
Meteor 2-17 Rocket 4.4 20:14:23 10° N 20:20:36 88° E 20:25:05 20° S
Cosmos 1933 3.9 20:17:43 10° SSW 20:21:43 58° W 20:25:42 10° N
USA 245 2.1 20:23:41 67° NNE 20:23:41 67° NNE 20:25:44 10° N
Iridium 4 Rocket 4.5 20:22:02 26° SE 20:24:24 36° E 20:29:43 10° NNE
Cosmos 783 Rocket 4.5 20:21:34 10° NNW 20:26:51 77° ENE 20:29:28 30° SSE
Cosmos 1242 Rocket 3.2 20:24:03 12° SSW 20:27:17 55° WNW 20:30:49 10° N
BREEZE M DEB (TANK) 2.9 20:28:56 10° WNW 20:33:11 40° N 20:34:07 27° NE
Resurs 01 Rocket 2.9 20:29:42 12° SSW 20:33:21 36° W 20:37:28 10° NNW
Cosmos 773 Rocket 4.0 20:29:22 10° NNW 20:34:41 72° ENE 20:37:01 34° SE
Spot 2 Rocket 3.4 20:34:12 30° SSE 20:36:47 89° ENE 20:41:52 10° NNW
SJ 16-02 2.4 20:38:19 27° E 20:38:19 27° E 20:41:47 10° NE
OE (NEXTSAT) 4.4 20:35:37 10° W 20:39:05 76° N 20:39:58 47° E
Cosmos 2228 Rocket 4.4 20:40:06 23° E 20:40:06 23° E 20:43:31 10° NE
DELTA 2 R/B (1) 4.3 20:35:28 10° W 20:40:31 36° SSW 20:41:51 32° SSE
COSMOS 2406 3.6 20:35:47 10° NNW 20:41:20 52° ENE 20:43:43 32° ESE
Meteor 2-6 Rocket 4.3 20:41:14 34° SSE 20:43:16 53° E 20:48:36 10° NNE
Cosmos 2082 Rocket 3.4 20:39:02 10° N 20:43:59 31° NE 20:46:29 22° E
USA 306 4.4 20:40:30 10° NW 20:44:23 33° NNE 20:47:01 17° ENE
Cosmos 1782 3.3 20:43:16 21° SSW 20:45:47 57° W 20:49:44 10° N
Cosmos 1500 3.0 20:42:41 10° N 20:46:28 88° E 20:47:10 58° S
CZ-4C R/B 3.1 20:39:27 10° NW 20:46:38 68° NE 20:51:18 28° SE
ERS-1 Rocket 2.9 20:50:52 40° SSE 20:52:43 83° ENE 20:57:46 10° NNW
SPOT 5 2.9 20:52:52 41° SSE 20:54:42 84° ENE 20:59:57 10° NNW
H-2A R/B 3.6 20:53:32 10° NNE 20:57:40 52° E 20:57:49 52° ESE
Cosmos 1271 Rocket 3.3 21:00:22 44° E 21:00:22 44° E 21:03:55 10° NNE
Meteor 1-11 Rocket 4.3 20:55:08 10° N 21:00:55 48° ENE 21:02:44 37° ESE
Cosmos 1151 Rocket 4.2 20:58:03 15° SW 21:01:17 41° WNW 21:05:27 10° N
Cosmos 1777 Rocket 3.9 20:58:39 27° SSW 21:01:33 89° ESE 21:06:47 10° NNE
Terra 1.8 21:02:23 51° SE 21:03:32 73° ENE 21:08:18 10° N
Cosmos 2278 Rocket 2.1 21:05:44 35° S 21:08:08 72° ESE 21:13:47 10° NNE
USA 307 4.0 21:05:47 10° NW 21:09:50 40° NNE 21:11:25 28° ENE
Cosmos 1340 Rocket 4.5 21:10:58 10° NNE 21:14:05 23° ENE 21:14:05 23° ENE
Cosmos 1515 Rocket 4.0 21:17:35 40° SW 21:18:56 60° W 21:23:19 10° N
Cosmos 2084 4.0 21:17:53 14° SW 21:21:20 57° NW 21:25:32 10° NNE
X-37B 2.8 21:18:54 10° W 21:20:09 21° W 21:20:09 21° W
ARIANE 5 R/B 3.9 21:20:40 26° SW 21:22:00 32° W 21:25:55 10° NNW
USA 308 3.7 21:19:15 10° NW 21:23:23 46° NNE 21:24:24 38° ENE
Cosmos 1869 Rocket 3.7 21:19:40 10° N 21:23:54 55° ENE 21:23:54 55° ENE
Cosmos 1536 3.5 21:20:15 10° N 21:23:48 44° ENE 21:23:48 44° ENE
Meteor 1-10 Rocket 4.1 21:22:59 45° S 21:24:49 89° W 21:30:29 10° N
Cosmos 1943 Rocket 3.8 21:30:25 19° E 21:30:25 19° E 21:33:08 10° NE
Cosmos 2154 Rocket 4.0 21:24:58 10° N 21:31:20 75° E 21:33:02 51° SSE
Cosmos 1812 4.0 21:31:31 31° WSW 21:32:25 35° WNW 21:36:00 10° N
ALOS 2 4.4 21:38:41 20° ENE 21:38:54 20° ENE 21:42:06 10° NNE
Cosmos 2184 Rocket 4.1 21:33:08 10° NNW 21:39:18 67° W 21:41:19 43° SSW
Cosmos 990 Rocket 4.4 21:40:01 46° E 21:40:01 46° E 21:44:39 10° NNE
Cosmos 1707 Rocket 4.4 21:42:54 38° ENE 21:42:54 38° ENE 21:46:14 10° NNE
NOSS 3-4 (A) 3.8 21:37:19 10° NW 21:44:21 80° NE 21:47:03 44° SE
NOSS 3-4 (C) 3.8 21:37:26 10° NW 21:44:27 79° NE 21:47:10 44° SE
ATLAS 5 CENTAUR R/B 3.7 21:40:45 10° WNW 21:45:39 27° WSW 21:47:13 25° SW
Cosmos 2074 Rocket 4.4 21:41:06 10° NNW 21:47:15 57° W 21:49:23 39° SSW
Cosmos 1666 4.2 21:49:10 10° NNW 21:52:11 28° W 21:52:11 28° W
Cosmos 2112 Rocket 4.3 21:47:58 10° NNW 21:53:13 54° ENE 21:53:50 51° E
Nadezhda 1 Rocket 4.0 21:51:51 47° SSW 21:53:49 78° W 22:00:07 10° N
Cosmos 1833 Rocket 3.3 21:49:29 10° NW 21:54:50 44° WSW 21:55:42 41° SW
Cosmos 1238 Rocket 4.2 21:50:55 10° N 21:57:04 49° ENE 21:57:51 46° E
Cosmos 1743 3.7 21:54:03 10° N 21:56:52 42° NNE 21:56:52 42° NNE
ATLAS 2AS CENTAUR R/B 3.0 21:50:38 10° NNW 21:58:00 62° NE 22:00:32 39° ESE
USA 215 4.1 21:55:02 14° E 22:00:20 46° NNE 22:06:31 10° NW
Cosmos 2297 4.0 22:03:58 50° E 22:03:58 50° E 22:09:05 10° NE
USA 305 3.4 22:01:15 10° NW 22:04:41 57° NW 22:04:41 57° NW
Cosmos 2181 Rocket 4.2 22:07:22 51° ESE 22:07:54 52° E 22:13:49 10° NNE
Cosmos 158 Rocket 4.5 22:11:00 10° NNW 22:15:27 45° W 22:15:27 45° W
SJ 16-02 2.9 22:15:15 26° W 22:16:30 30° WNW 22:20:27 10° N
Cosmos 1733 Rocket 3.6 22:12:29 10° N 22:16:02 54° NNE 22:16:02 54° NNE
Cosmos 2228 Rocket 4.3 22:17:34 33° W 22:18:02 34° WNW 22:22:05 10° N
Meteor 1-27 Rocket 4.4 22:18:37 40° WSW 22:20:13 52° WNW 22:25:59 10° N
Cosmos 1680 Rocket 3.4 22:16:06 10° NNW 22:21:26 78° WSW 22:21:27 78° WSW
Cosmos 2341 Rocket 3.9 22:15:43 10° N 22:22:09 88° W 22:23:08 67° S
Cosmos 2366 rocket 4.0 22:17:13 10° N 22:23:21 62° E 22:24:07 57° ESE
Cosmos 1937 Rocket 3.6 22:24:06 61° ENE 22:24:06 61° ENE 22:28:38 10° NNE
USA 306 4.1 22:20:23 10° WNW 22:23:05 38° WNW 22:23:05 38° WNW
Cosmos 1818 4.2 22:21:19 10° NNW 22:26:38 48° NE 22:27:40 42° E
Cosmos 967 Rocket 4.3 22:27:43 68° SE 22:27:55 68° ESE 22:34:10 10° NE
Cosmos 2082 Rocket 2.7 22:22:54 10° NW 22:28:15 46° WSW 22:28:19 46° WSW
CZ-4C R/B 3.9 22:28:25 10° NW 22:35:05 35° WSW 22:36:28 33° SW
Cosmos 858 Rocket 4.5 22:37:14 76° NE 22:37:14 76° NE 22:42:06 10° NNE
Meteor 1-19 Rocket 4.0 22:40:49 83° ENE 22:40:49 83° ENE 22:46:09 10° NNE
Cosmos 2218 Rocket 3.8 22:35:05 10° N 22:41:23 86° E 22:42:06 72° SSE
Terra 4.1 22:41:15 13° W 22:41:48 13° W 22:44:03 10° WNW
Okean 1 4.5 22:46:34 41° NNW 22:46:34 41° NNW 22:49:25 10° N
Cosmos 489 Rocket 4.4 22:42:23 10° NNW 22:48:39 78° ENE 22:49:22 69° SE
Cosmos 1461 4.5 22:53:28 32° ENE 22:53:28 32° ENE 22:56:11 10° NE
Cosmos 2278 Rocket 4.3 22:48:30 10° W 22:52:48 22° NW 22:57:08 10° N
Cosmos 1862 Rocket 4.4 22:57:00 47° NW 22:57:00 47° NW 23:00:25 10° N
Cosmos 1898 Rocket 4.2 22:57:39 44° W 22:58:21 47° WNW 23:03:30 10° N
Nadezhda 3 Rocket 4.3 23:02:11 49° ESE 23:02:41 50° E 23:08:40 10° NNE
Cosmos 2369 Rocket 2.4 23:03:27 58° E 23:03:27 58° E 23:08:32 10° NNE
COBE Rocket 4.1 23:07:04 71° NW 23:07:04 71° NW 23:11:45 10° NNW
RESURS DK-1 4.0 23:06:18 10° N 23:09:53 29° NE 23:09:53 29° NE
Meteor 2-9 Rocket 4.5 23:04:52 10° NNW 23:10:32 56° W 23:10:35 56° W
SL-8 Rocket 4.4 23:04:51 10° NNW 23:10:54 49° W 23:11:34 47° WSW
Cosmos 1943 Rocket 2.3 23:11:55 62° W 23:12:23 64° WNW 23:17:59 10° NNE
Cosmos 1975 4.3 23:09:45 10° NNW 23:12:12 33° NW 23:12:12 33° NW
ALOS 2 3.8 23:16:05 36° WNW 23:16:05 36° WNW 23:19:09 10° NNW
Cosmos 1867 4.3 23:18:57 41° E 23:18:57 41° E 23:23:09 10° NE
SL-08 R/B 4.3 23:12:51 10° N 23:19:05 86° W 23:19:37 76° S
Cosmos 1607 4.3 23:19:25 52° ESE 23:19:25 52° ESE 23:25:34 10° NE
DNEPR-1 R/B 4.4 23:19:56 59° W 23:20:32 63° NW 23:25:30 10° NNE
Meteor 2-4 Rocket 3.7 23:20:31 77° WSW 23:20:43 79° W 23:26:26 10° N
Cosmos 44 4.2 23:16:43 10° NW 23:20:48 42° W 23:20:48 42° W
Cosmos 2263 4.3 23:22:38 62° E 23:22:38 62° E 23:28:07 10° NNE
Okean 1-7 3.8 23:30:15 48° N 23:30:15 48° N 23:33:26 10° N
ATLAS CENTAUR R/B 3.7 23:32:11 15° ENE 23:32:11 15° ENE 23:32:59 10° ENE
Cosmos 372 Rocket 4.2 23:30:36 58° WNW 23:30:36 58° WNW 23:35:34 10° NNE
Cosmos 1125 Rocket 3.9 23:35:51 51° E 23:35:51 51° E 23:40:27 10° NNE
Sich 1 Rocket 4.5 23:31:33 10° N 23:35:34 45° ENE 23:35:34 45° ENE
SeaSat 1 2.5 23:33:35 10° NNE 23:38:19 75° NNW 23:38:19 75° NNW
Cosmos 1656 Rocket 3.6 23:39:04 72° E 23:39:04 72° E 23:44:19 10° NNE
Cosmos 2242 Rocket 4.4 23:40:22 46° NW 23:40:22 46° NW 23:43:54 10° N
Cosmos 494 Rocket 4.2 23:34:53 10° NNW 23:40:04 62° ENE 23:40:13 62° ENE
USA 215 3.1 23:42:20 65° S 23:43:08 72° SW 23:49:42 10° NW
Cosmos 2239 Rocket 4.3 23:37:48 10° N 23:44:09 88° WSW 23:44:52 72° S
Cosmos 1833 4.2 23:41:11 10° NNW 23:46:58 77° ENE 23:47:33 69° ESE
ATLAS 2AS CENTAUR R/B 3.6 23:42:17 10° NW 23:47:56 32° WSW 23:47:56 32° WSW
CZ-2D R/B 3.8 23:48:56 10° NE 23:53:02 22° E 23:53:55 21° ESE
